Zurück zum Katalog

COSMOS 534

AktivMilitärLEO
NORAD 6269·PAYLOAD·🇷🇺 Russia

Gestartet Nov 1, 1972 von Plesetsk Cosmodrome

Loading…

Nächste Überflüge (nächste 24 Stunden)

TLE

AktuellSource: Space-Track

Epoche: Sep 14, 2026, 11:14 UTC

1 06269U 72087G   26257.46849604 -.00000017  00000-0 -37763-5 0  9991
2 06269  74.0323 277.1476 0076611 355.5898  73.9093 12.63679262484913

Verfolge COSMOS 534 in Echtzeit mit AllMySat

Download on the App Store